596  
ASUS41 KAKQ 182015  
RWRAKQ  
 
REGIONAL WEATHER ROUNDUP  
NATIONAL WEATHER SERVICE WAKEFIELD VA  
400 PM EDT WED JUL 18 2018  
 
NOTE: "FAIR" INDICATES FEW OR NO CLOUDS BELOW 12,000 FEET WITH NO  
SIGNIFICANT WEATHER AND/OR S TO VISIBILITY
. * = DENOTES  
STATION MAY NOT REPORT PRECIPITATION (E.G., RAIN,SNOW,ETC.),
 
THUNDER OR FOG.  
 
VAZ042-051-052>054-056-182100-  
NORTHERN VIRGINIA  
 
CITY SKY/WX TMP DP RH WIND PRES REMARKS
 
WASH NATIONAL FAIR 88 55 32 N14 29.95S  
DULLES FAIR 81 55 40 N9 29.97S  
FORT BELVOIR FAIR 87 54 32 N10 29.95S  
QUANTICO FAIR 87 57 35 NW13 29.95F  
FREDERICKSBRG* FAIR 85 57 38 N7 29.95F  
STAFFORD* FAIR 86 53 32 NW8 30.00F  
WARRENTON FAIR 84 50 30 NW6G20 29.98F  
CULPEPER* FAIR 83 54 36 N10 29.99F  
MANASSAS* FAIR 84 58 40 N13 29.97S  
LEESBURG* PTSUNNY 82 59 44 N8 29.98F  
WINCHESTER FAIR 77 55 47 CALM 30.02F  
FRONT ROYAL* FAIR 81 57 44 N5 30.00S  
LURAY* MOCLDY 81 52 36 NW8 30.01S  

 
 
VAZ048-049-060>072-079>083-182100-  
CENTRAL AND SOUTH CENTRAL VIRGINIA  
 
CITY SKY/WX TMP DP RH WIND PRES REMARKS
 
RICHMOND FAIR 86 57 37 NE10 29.95S  
CHESTERFIELD* FAIR 85 59 41 NW6 29.96F  
PETERSBURG* FAIR 84 56 38 N5 29.96S  
HANOVER PTSUNNY 84 60 44 VRB5 29.96F  
TAPPAHANNOCK* FAIR 86 59 39 W7 29.95F  
QUINTON* FAIR 83 61 46 NW7 29.94F  
CHARLOTTSVILLE FAIR 85 56 37 VRB7 29.98F  
GORDONSVILLE* FAIR 82 57 42 NE10 29.98F  
ORANGE* FAIR 81 55 41 NE6 29.98F  
LOUISA* FAIR 82 55 39 N9 30.02F  
BUMPASS* FAIR 83 55 38 N6 29.97F  
FARMVILLE* FAIR 83 56 40 NE3 29.97S  
CREWE* FAIR 82 57 42 N6 29.97S  
FORT PICKETT* FAIR 84 56 38 N5 29.97F  
CHASE CITY* FAIR N/A N/A N/A NW6 29.98F  
CLARKSVILLE* FAIR 82 59 44 N6 29.97S  
SOUTH HILL* FAIR 83 60 45 N6 30.02F  
LAWRENCEVILLE* FAIR 84 56 38 NE3 29.96F  
EMPORIA* FAIR 82 59 44 NW6 29.96F  

 
 
VAZ088>098-182100-  
SOUTHEAST VIRGINIA  
 
CITY SKY/WX TMP DP RH WIND PRES REMARKS
 
NORFOLK PTSUNNY 83 62 49 NE5 29.93S  
VIRGINIA BEACH PTSUNNY 86 59 39 N8 29.92S  
NORFOLK NAVAL FAIR 84 63 49 E7 29.94S  
WEST POINT* FAIR 86 58 38 NW3 29.94F  
SALUDA* FAIR 86 61 43 W6 29.93S  
NEWPORT NEWS FAIR 84 65 52 E12 29.93S  
LANGLEY AFB FAIR 85 65 50 SE13 29.93S  
FORT EUSTIS FAIR 87 64 45 NW8 29.91S  
WILLIAMSBURG* FAIR 90 55 31 CALM 29.94S  
HR EXEC AP* MOCLDY 86 69 56 VRB5 29.93F  
FRANKLIN* FAIR 84 63 49 NW9 29.94F  
US460-WAKEFLD FAIR 84 63 49 N3 29.94S  

 
 
VAZ020-022-025-037-045-182100-  
WEST CENTRAL AND SOUTHWEST VIRGINIA  
 
CITY SKY/WX TMP DP RH WIND PRES REMARKS
 
STAUNTON* FAIR 80 51 35 N7 30.04F  
WAYNESBORO* FAIR 80 53 38 N7 30.03S  
HOT SPRINGS VA FAIR 73 55 53 N6 30.14S  
LYNCHBURG FAIR 84 52 33 VRB6 30.00S  
DANVILLE FAIR 84 63 49 E5 29.97F  
SOUTH BOSTON* FAIR 84 57 39 NW3 29.97F  
MARTINSVILLE FAIR 87 63 44 CALM 30.00F  
ROANOKE PTSUNNY 84 53 34 CALM 30.02F  
BLACKSBURG FAIR 81 53 38 NW5 30.08F  
DUBLIN* FAIR 81 51 35 NW6 30.07F  
MARION* FAIR 80 55 41 NW6 30.11F  
HILLSVILLE* FAIR 77 55 46 N5 30.07F  
RICHLANDS* FAIR 74 56 52 NW7 30.11S  
WISE* FAIR 77 61 57 N8 30.12S  
ABINGDON* FAIR 83 55 37 N6 30.07S  

 
 
MDZ021>025-VAZ099-100-182100-  
SOUTHERN MARYLAND AND THE DELMARVA PENINSULA  
 
CITY SKY/WX TMP DP RH WIND PRES REMARKS
 
PATUXENT RIVER FAIR 88 57 34 NW10 29.93S  
BAY BRIDGE APT FAIR 84 57 39 N7 29.93F  
LEONARDTOWN FAIR 84 52 32 NW6 29.95F  
DOVER MOSUNNY 86 59 40 N9 29.91S  
GEORGETOWN FAIR 84 60 44 N6 29.91F  
EASTON MOSUNNY 86 57 37 NW12 29.96F  
CAMBRIDGE SUNNY 84 54 34 NW12 29.93S  
SALISBURY FAIR 85 58 39 W14 29.91S  
TANGIER FAIR 84 61 45 NW12G17 29.93S  
OCEAN CITY FAIR 82 63 52 E9 29.91F  
WALLOPS ISLAND FAIR 89 62 40 NW9 29.91S  
ACCOMACK* FAIR 83 64 51 NW13 29.93S  

 
 
NCZ012>017-030>032-182100-  
NORTH CENTRAL AND EASTERN NORTH CAROLINA  
 
CITY SKY/WX TMP DP RH WIND PRES REMARKS
 
ROANOKE RAPIDS FAIR 84 59 42 W3 29.94F  
RALEIGH PTSUNNY 88 58 36 VRB6 29.95F  
ELIZABETH CITY CLOUDY 84 73 69 NE10 29.92S  
AHOSKIE* FAIR 83 63 49 MISG 29.94S  
EDENTON* FAIR 89 69 52 N7 29.93S  
CURRITUCK* FAIR 83 66 56 MISG 29.93F  
KILL DEVIL HLS N/A 79 71 76 N6 29.91F  
MANTEO FAIR 82 72 72 NE9 29.92F  
CAPE HATTERAS FAIR 83 73 72 NE9 29.90F  
TARBORO* NOT AVBL  
GOLDSBORO FAIR 89 66 45 N14 29.91F  
WASHINGTON FAIR 88 65 47 NE6 29.92S  
GREENVILLE FAIR 90 63 40 N8 29.94S  
NEW BERN PTSUNNY 86 72 62 NE10 29.92S  
WILMINGTON LGT RAIN 77 75 93 S5 29.90F  

 
 
VAZ048-182100-  
ELSEWHERE  
 
CITY SKY/WX TMP DP RH WIND PRES REMARKS
 
HARRISBURG PA FAIR 83 51 33 N8 29.95F  
BALTIMORE FAIR 87 55 33 NW10 29.93F  
ANNAPOLIS FAIR 86 59 39 NE7 29.93S  
ANDREWS AFB FAIR 85 53 32 N12 29.94S  
PHILADELPHIA FAIR 85 53 33 NE9G20 29.91S  
GREENSBORO PTSUNNY 85 63 47 E5 29.96F  
ROCKY MOUNT FAIR 88 61 40 N8 29.94F  

 
 
VAZ100-182100-  
MARINE  
 
STATION/POSITION TIME TEMP WIND PRES WAVE SWELL
 
AIR SEA DIR/SP/G HT/PER HT/PER  
(UTC) (F) (DEG/KT/KT) (MB) (FT/S) (FT/S)  
BRANDYWINE LGT 1942 80 320/ 7/ 8 1013.2F  
CAPE MAY NJ 1948 81 76 310/ 9/ 11 1012.2F  
LEWES DE 1942 78 76 1012.9S  
15NM E FENWICK I 1950 76 76 20/ 8/ 8 1013.1F 3/ 7 3/ 7  
OCEAN-CITY-INLET 1942 80 72 90/ 6/ 9 1013.3F  
WACHAPREAGUE VA 1942 86 84 250/ 2/ 9 1013.3F  
THOMAS POINT MD 2000 81 81 30/ 12/ 13 1014.3F  
GOOSES REEF MD 2000 81 40/ 4/ 6 1014.6 1  
COVE POINT MD 1942 80 40/ 6/ 9 1014.3F  
SOLOMONS ISLAND 1942 83 81 300/ 5/ 9 1013.3F  
BISHOPS HEAD MD 1942 81 300/ 13/ 15 1014.2S  
POTOMAC MD 2000 81 82 300/ 10/ 12 1012.8 0  
CAMBRIDGE MD 1942 86 84 1014.6F  
LEWISETTA VA 1942 83 82 350/ 7/ 9 1013.7F  
RAPPAHANNOCK LGT 1942 350/ 14/ 16 1014.2F  
STINGRAY PT 2000 81 81 60/ 12/ 16 1014.4 1/ 3  
YORK RVR RNG VA 1942 80 70/ 12/ 14 1014.0S  
YORKTOWN VA 1942 83 81 300/ 8/ 10 1012.9F  
DOMINION TERM VA 1942 81 120/ 9/ 12 1013.7S  
KIPTOPEKE VA 1942 82 330/ 12/ 14 N/A  
CAPE HENRY VA 1942 79 360/ 8/ 10 1012.0S  
WILLOUBY STN VA 1942 80 50/ 10/ 12 1012.9R  
S CRANEY ISL VA 1942 82 70/ 8/ 10 1013.4F  
CAPE HENRY BUOY 2000 80 N/A 3/ 7  
1ST LANDING BUOY 2000 80 30/ 12/ 12 1013.1 2/ 4  
64NM E OF VA BCH 1950 76 78 340/ 10/ 12 1013.6S 4/ 7 3/ 7  
DUCK PIER NC 1942 76 74 30/ 10/ 11 1013.1F  
44100 DUCK FRF 1945 78 N/A 3/ 8  
44056 DUCK FRF 1930 76 N/A 2/10  
OREGON INLET NC 1942 78 78 20/ 10/ 13 1013.0F  
HATTERAS NC 1942 81 82 40/ 8/ 13 1012.4F  
DIAMOND SHLS NC 2000 79 82 20/ 10/ 12 1012.8  
CAPE LOOKOUT NC 2000 80/ 8/ 9 1013.0F  

 
 
 
CLICK HERE TO GO TO PREVIOUS BULLETINS.

The Nexlab VA Page
The Nexlab NC Page
The Nexlab MD Page Main Text Page